User: anonymous   Login
Location: Caltech
(34.1382°N, 118.1253°W)
Time: 12:25:55
(UTC-07:00)
Language:

Iridium 91 - Orbit

View from above orbital plane
View from above orbital plane
View from above satellite
View from above satellite

Ground track
Ground track

The orbit data is extracted from the following two-line orbital elements,

1 27372U 02005A   15212.51707775  .00000018  00000-0 -78516-6 0  9991
2 27372 086.3967 214.7452 0002145 079.9046 032.1912 14.34215015713201
Epoch (UTC): 31 July 2015 12:24:35
Eccentricity: 0.0002145
inclination: 86.3967°
perigee height: 776 km
apogee height: 779 km
right ascension of ascending node: 214.7452°
argument of perigee: 79.9046°
revolutions per day: 14.34215015
mean anomaly at epoch: 32.1912°
orbit number at epoch: 71320

The dashed part of the orbit path shows where the satellite is in the earth's shadow,  

DLR